GW3496 Weather Reports


Display with metric or nautical units.
time (UTC)temp
F
wind
direction
speed
MPH
gust
MPH
rain 1hr
in
rain 24hr
in
rain mn
in
humidity
%
barometer
mb
20260831103034 72 350 0.0 0.0 0.00 0.00 0.00 92 1016.3
20260831101534 72 83 0.0 0.0 0.00 0.00 0.00 92 1016.2
20260831100037 72 83 0.0 0.0 0.00 0.00 0.00 92 1016.3
20260831094536 73 83 0.0 0.0 0.00 0.00 0.00 92 1016.3
20260831093036 73 83 0.0 0.0 0.00 0.00 0.00 92 1016.3
20260831091539 73 83 0.0 0.0 0.00 0.00 0.00 92 1016.2
20260831090039 73 83 0.0 0.0 0.00 0.00 0.00 92 1016.2
20260831084545 73 83 0.0 0.0 0.00 0.00 0.00 92 1016.3
20260831083039 73 83 0.0 0.0 0.00 0.00 0.00 92 1016.2
20260831081543 73 83 0.0 0.0 0.00 0.00 0.00 92 1016.2
20260831080040 73 83 0.0 0.0 0.00 0.00 0.00 92 1016.1
20260831074539 73 83 0.0 0.0 0.00 0.00 0.00 91 1016.2
20260831073042 74 83 0.0 0.0 0.00 0.00 0.00 91 1016.1
20260831071539 74 83 0.0 0.0 0.00 0.00 0.00 91 1016.1
20260831070054 74 83 0.0 0.0 0.00 0.00 0.00 91 1016.1
20260831064544 74 83 0.0 0.0 0.00 0.00 0.00 91 1016.2
20260831063047 74 83 0.0 2.0 0.00 0.00 0.00 91 1016.2
20260831061543 74 84 0.0 0.0 0.00 0.00 0.00 91 1016.2
20260831060047 74 5 0.0 3.0 0.00 0.00 0.00 91 1016.3
20260831054546 74 298 0.0 3.0 0.00 0.00 0.00 90 1016.3
20260831053058 75 70 0.0 0.0 0.00 0.00 0.00 90 1016.4
20260831051548 75 35 0.0 0.0 0.00 0.00 0.00 89 1016.6
20260831050047 75 35 0.0 4.0 0.00 0.00 0.00 88 1016.7
20260831044540 76 55 0.0 0.0 0.00 0.00 0.00 86 1016.4
20260831043052 76 243 0.0 4.0 0.00 0.00 0.00 86 1016.2
20260831041555 76 252 3.0 6.0 0.00 0.00 0.00 87 1016.4
20260831040055 76 205 4.0 8.0 0.00 0.00 0.00 88 1016.4
20260831034553 76 198 6.0 8.0 0.00 0.00 0.00 87 1016.5
20260831033107 76 246 0.0 3.0 0.00 0.00 0.00 86 1017.0
20260831031548 76 261 4.0 7.0 0.00 0.00 0.00 86 1017.2
20260831030056 76 311 0.0 0.0 0.00 0.00 0.00 86 1017.2
20260831024552 76 313 0.0 8.0 0.00 0.00 0.00 86 1017.5
20260831023052 76 277 6.0 13.0 0.00 0.00 0.00 87 1017.6
20260831021545 75 277 0.0 0.0 0.00 0.00 0.00 87 1017.4
20260831020108 75 301 0.0 0.0 0.00 0.00 0.00 88 1017.6
20260831014553 75 40 0.0 0.0 0.00 0.00 0.00 88 1017.4
20260831013055 75 58 0.0 0.0 0.00 0.00 0.00 87 1017.3
20260831011547 76 29 0.0 0.0 0.00 0.00 0.00 86 1017.2
20260831010053 77 19 0.0 0.0 0.00 0.00 0.00 84 1017.3
20260831004557 78 21 0.0 0.0 0.00 0.00 0.00 79 1017.2
20260831003053 79 65 0.0 0.0 0.00 0.00 0.00 76 1017.0
20260831001549 79 174 2.0 6.0 0.00 0.00 0.00 75 1016.7
20260831000055 80 192 3.0 6.0 0.00 0.00 0.00 76 1016.5
20260830234551 79 134 0.0 0.0 0.00 0.00 0.00 74 1016.6
20260830233051 79 294 0.0 14.0 0.00 0.00 0.00 73 1017.0
20260830231554 81 268 9.0 17.0 0.00 0.00 0.00 69 1017.3
20260830230050 83 293 13.0 21.0 0.00 0.00 0.00 66 1017.4
20260830224543 86 232 4.0 8.0 0.00 0.00 0.00 66 1017.2
20260830223055 86 202 5.0 10.0 0.00 0.00 0.00 65 1016.8
20260830221550 86 203 5.0 13.0 0.00 0.00 0.00 65 1016.7
20260830220058 86 207 6.0 10.0 0.00 0.00 0.00 64 1016.6
20260830214547 87 220 6.0 15.0 0.00 0.00 0.00 63 1016.6
20260830213052 87 196 6.0 12.0 0.00 0.00 0.00 63 1016.5
20260830211559 88 155 7.0 13.0 0.00 0.00 0.00 62 1016.7
20260830210050 88 238 7.0 14.0 0.00 0.00 0.00 62 1016.6
20260830204555 88 169 7.0 15.0 0.00 0.00 0.00 62 1016.4
20260830203052 88 194 5.0 11.0 0.00 0.00 0.00 62 1016.7
20260830201551 88 143 6.0 11.0 0.00 0.00 0.00 61 1016.9
20260830200053 88 252 6.0 12.0 0.00 0.00 0.00 62 1017.0
20260830194603 87 176 8.0 15.0 0.00 0.00 0.00 62 1017.1
20260830193055 87 146 5.0 14.0 0.00 0.00 0.00 63 1017.2
20260830191559 87 217 8.0 17.0 0.00 0.00 0.00 63 1017.3
20260830190117 86 236 9.0 13.0 0.00 0.00 0.00 64 1017.7
20260830184549 86 154 6.0 13.0 0.00 0.00 0.00 64 1018.1
20260830183052 86 221 4.0 16.0 0.00 0.00 0.00 65 1018.4
20260830181552 85 309 3.0 12.0 0.00 0.00 0.00 67 1018.7
20260830180117 85 265 6.0 11.0 0.00 0.00 0.00 66 1018.9
20260830174610 84 227 9.0 14.0 0.00 0.00 0.00 68 1019.3
20260830173116 84 206 7.0 11.0 0.00 0.00 0.00 68 1019.6
20260830171602 83 264 5.0 13.0 0.00 0.00 0.00 71 1019.6
20260830170106 82 240 9.0 15.0 0.00 0.00 0.00 71 1019.9
20260830164553 82 213 3.0 13.0 0.00 0.00 0.00 72 1020.1
20260830163107 81 231 7.0 13.0 0.00 0.00 0.00 73 1020.2
20260830161603 82 201 8.0 14.0 0.00 0.00 0.00 72 1020.2
20260830160107 81 192 11.0 18.0 0.00 0.00 0.00 72 1020.4
20260830154555 80 160 12.0 15.0 0.00 0.00 0.00 75 1020.5
20260830153054 81 267 6.0 15.0 0.00 0.00 0.00 74 1020.6
20260830151607 80 179 4.0 18.0 0.00 0.00 0.00 77 1020.6
20260830150115 80 202 7.0 14.0 0.00 0.00 0.00 76 1020.7
20260830143053 78 229 8.0 13.0 0.00 0.00 0.00 81 1020.2
20260830141547 77 159 6.0 12.0 0.00 0.00 0.00 83 1020.6
20260830140054 77 237 5.0 12.0 0.00 0.00 0.00 85 1020.6
20260830134555 76 202 7.0 14.0 0.00 0.00 0.00 85 1020.3
20260830133052 75 219 4.0 12.0 0.00 0.00 0.00 88 1020.6
20260830131557 74 182 5.0 11.0 0.00 0.00 0.00 89 1020.6
20260830130059 74 194 6.0 11.0 0.00 0.00 0.00 91 1020.7
20260830124552 73 180 3.0 10.0 0.00 0.00 0.00 93 1021.1
20260830123049 72 137 4.0 7.0 0.00 0.00 0.00 93 1020.9
20260830121554 71 146 3.0 8.0 0.00 0.00 0.00 93 1021.1
20260830120053 71 119 3.0 7.0 0.00 0.00 0.00 94 1021.2
20260830114557 71 188 2.0 4.0 0.00 0.00 0.00 94 1021.1
20260830113045 71 185 0.0 3.0 0.00 0.00 0.00 94 1020.8
20260830111541 71 181 0.0 1.0 0.00 0.00 0.00 93 1020.7
20260830110051 71 157 2.0 6.0 0.00 0.00 0.00 94 1020.7
20260830104550 70 162 2.0 6.0 0.00 0.00 0.00 94 1020.6